Temperature
16 16 16 16 15 15 15 15 16 16 16 16 16 16 17 17 17 17 17 17 17 17 17 17 18 18 18 18 18 18 18 18 17 17 18 17 17 17 18 18 18 18 17
16 16 15 15 15 15 15 15 15 15 16 16 16 16 16 16 16 17 17 17 17 17 17 17 17 18 18 18 18 18 18 17 17 17 17 17 17 17 17 18 18 18 17
16 15 15 15 15 15 15 15 15 15 15 16 16 16 16 16 16 16 16 17 17 17 17 17 17 17 17 18 18 18 18 18 18 18 17 17 17 17 17 18 18 17 17
16 15 15 15 15 15 15 15 15 15 15 16 16 16 16 16 16 16 16 16 16 17 17 17 17 17 17 17 18 18 18 17 18 18 17 17 17 17 17 17 17 17 17
15 15 15 15 14 14 14 14 14 15 15 15 16 16 16 16 16 16 16 16 16 17 17 17 17 17 17 17 17 17 17 17 17 17 17 17 17 17 17 17 17 17 17
15 15 15 14 14 14 14 14 14 14 15 15 15 16 16 16 16 16 16 16 16 16 17 17 17 17 17 17 17 17 17 17 17 17 17 17 17 17 17 17 17 17 17
15 15 14 14 14 14 14 14 14 14 15 15 15 16 16 16 16 16 16 16 16 16 16 16 17 17 17 17 17 17 17 17 17 17 17 17 17 17 17 17 17 17 17
15 14 14 14 14 14 14 14 14 14 14 15 15 15 15 16 16 16 16 16 16 16 16 16 16 16 17 17 17 17 17 17 17 17 17 17 17 17 17 17 17 17 17
15 15 14 14 14 14 14 14 14 14 14 14 15 15 15 15 16 16 16 16 16 16 16 16 16 16 16 17 17 17 17 17 17 17 17 17 17 17 17 17 17 17 17
15 15 15 14 14 14 14 14 14 14 14 14 14 15 15 15 15 15 16 16 16 16 16 16 16 16 16 16 16 16 17 17 17 17 17 17 17 17 17 17 17 17 17
15 15 15 15 14 14 14 14 14 14 14 14 14 14 15 15 15 15 15 15 16 16 16 16 16 16 16 16 16 16 16 16 17 17 17 17 17 17 17 17 17 17 17
15 15 15 15 14 14 14 14 14 14 14 14 14 14 14 14 15 15 15 15 15 15 15 16 16 16 16 16 16 16 16 16 16 16 17 17 17 17 17 17 17 17 17
15 15 15 15 14 14 14 14 14 14 14 14 14 14 14 14 14 15 15 15 15 15 15 15 15 15 16 16 16 16 16 16 16 16 16 16 16 16 16 17 17 17 17
15 15 15 15 15 14 14 14 14 14 14 14 14 14 14 14 14 14 14 15 15 15 15 15 15 15 15 15 15 15 16 16 16 16 16 16 16 16 16 16 16 16 16
15 15 15 15 15 15 14 14 14 14 14 14 14 14 14 14 14 14 14 14 14 14 15 15 15 15 15 15 15 15 15 15 15 15 16 16 16 16 16 16 16 16 16
15 15 15 15 15 15 15 14 14 14 14 14 14 14 14 14 14 14 14 14 14 14 14 15 15 15 15 15 15 15 15 15 15 15 15 15 15 16 16 16 16 16 16
15 15 15 15 15 15 15 15 14 14 14 14 14 14 14 14 14 14 14 14 14 14 14 14 14 14 14 14 14 14 14 14 15 15 15 15 15 15 15 15 15 16 16
15 15 15 15 15 15 15 15 14 14 14 14 14 14 14 14 14 14 14 14 14 14 14 14 14 14 14 14 14 14 14 14 14 14 15 15 15 15 15 15 15 15 15
15 15 15 15 15 15 15 15 14 14 14 14 14 14 14 14 14 14 14 14 14 14 14 14 14 14 14 14 14 14 14 14 14 14 14 14 14 15 15 15 15 15 15
15 15 15 15 15 15 14 14 14 14 14 14 14 14 14 14 14 14 14 14 14 14 14 14 14 14 14 14 13 13 13 14 13 13 14 14 14 14 14 14 14 14 15
14 14 14 14 14 14 14 14 14 14 14 14 14 14 14 14 14 14 14 14 14 13 14 13 13 13 13 13 13 13 13 13 13 13 13 13 13 14 14 14 14 14 14
14 13 13 13 14 14 14 14 14 14 14 14 14 14 14 14 14 14 14 14 14 13 13 13 13 13 13 13 13 13 13 13 13 13 13 13 13 13 13 13 13 13 14
13 13 13 13 13 13 13 13 13 13 13 13 13 13 13 13 14 14 13 13 13 13 13 13 13 13 13 13 13 13 13 13 13 13 13 13 13 13 13 13 13 13 13
13 13 13 13 13 13 13 13 13 13 13 13 13 13 13 13 13 13 13 13 13 13 13 13 13 13 13 13 13 13 13 13 13 12 12 12 12 12 12 13 13 13 13
12 12 12 12 13 13 13 13 13 13 13 12 12 13 13 13 13 13 13 13 13 13 13 13 13 13 13 13 13 13 12 12 12 12 12 12 12 12 12 12 12 12 12
12 12 12 12 12 12 13 13 12 12 12 12 12 12 12 12 12 13 13 12 12 12 12 12 12 12 12 12 12 12 12 12 12 12 12 12 12 12 12 12 12 12 12
Wind_Speed
3 3 2 2 3 4 3 3 4 4 4 3 2 3 3 2 0 1 6 7 6 4 4 4 5 6 7 7 8 7 7 8 8 8 7 7 8 9 10 10 11 11 11
2 2 4 3 2 4 3 3 4 3 3 3 3 3 2 2 0 0 4 6 6 5 4 5 6 7 8 8 8 8 8 8 8 8 8 8 8 9 9 9 10 10 11
3 2 4 4 3 5 5 3 4 4 4 4 3 3 2 1 1 1 2 5 6 6 6 6 6 7 8 8 8 9 9 9 9 9 9 9 8 8 9 9 10 10 10
6 3 3 4 4 5 4 4 3 4 4 4 3 3 2 1 1 2 3 4 5 5 6 7 7 8 9 8 8 9 9 9 9 9 10 10 9 9 9 9 9 9 10
8 4 3 3 5 3 4 6 4 4 4 5 4 3 2 1 1 2 1 2 4 6 6 8 8 8 8 9 9 9 9 10 10 10 10 10 10 10 10 9 9 9 9
6 5 3 3 4 3 4 4 5 4 4 4 5 3 2 2 1 0 2 1 1 3 5 7 7 7 8 9 9 9 10 10 10 10 10 11 11 10 10 10 10 9 9
4 3 3 3 2 3 3 5 4 5 4 3 3 3 3 2 0 1 0 1 1 1 3 5 7 7 7 9 9 9 10 11 11 11 12 12 12 11 11 10 11 10 10
3 4 3 3 2 1 3 4 3 3 4 4 2 2 2 3 3 0 0 0 0 1 1 2 4 6 6 7 7 8 9 10 11 12 12 12 12 12 12 11 11 11 11
1 2 3 4 3 2 2 3 3 3 3 4 2 1 1 1 2 2 1 0 1 1 1 0 1 3 6 6 7 7 8 9 10 11 12 12 13 13 12 12 11 11 11
1 1 3 3 3 2 3 3 3 2 2 3 3 2 1 0 0 1 2 1 1 1 1 0 2 3 5 6 6 7 8 8 7 9 11 12 12 13 13 12 12 12 12
1 1 2 2 2 2 2 3 3 2 2 2 3 2 3 2 1 1 1 1 1 0 1 1 1 2 3 6 6 6 7 7 6 7 8 10 11 12 13 13 13 13 13
1 1 1 1 1 2 2 3 3 2 1 2 2 2 2 1 2 1 1 1 0 1 1 1 1 1 2 5 5 6 7 7 6 6 6 8 9 10 11 12 13 13 13
0 0 1 1 1 2 2 2 3 2 2 1 1 2 2 2 1 1 1 1 1 1 0 1 2 1 2 4 5 6 7 8 7 6 6 7 8 8 9 10 11 12 12
1 1 1 2 1 1 2 2 2 2 2 2 2 2 1 2 2 1 0 0 1 1 1 1 1 2 2 4 5 6 6 8 8 7 6 6 7 7 8 8 8 9 10
2 2 3 3 2 3 2 1 2 2 3 2 2 2 1 2 1 1 1 0 1 1 1 1 1 1 2 4 5 6 6 7 9 8 7 7 6 6 7 7 7 8 8
3 4 5 4 3 3 3 2 2 2 3 2 2 2 2 2 2 1 1 1 0 1 1 1 1 2 2 2 4 4 5 8 8 8 7 7 7 6 7 7 7 6 6
4 5 5 5 4 3 2 2 3 3 3 3 3 2 2 2 2 1 1 1 1 1 2 2 1 1 2 2 2 2 5 6 6 8 8 8 7 7 7 7 7 6 6
4 5 5 5 4 3 3 3 4 4 4 4 3 2 3 2 3 2 2 2 2 2 2 2 1 0 1 2 2 2 2 4 5 7 9 9 8 7 7 7 7 7 6
5 5 5 4 4 4 4 3 4 4 4 4 3 3 3 2 3 3 3 3 2 2 2 2 2 1 1 1 1 1 1 1 4 7 8 8 8 8 8 8 7 7 6
7 6 6 5 4 4 4 4 4 4 4 4 4 3 3 3 3 3 3 3 3 3 3 2 2 2 2 2 2 1 1 1 2 3 5 7 8 9 8 8 8 7 7
8 7 6 6 5 5 4 4 4 5 5 5 5 4 4 4 4 3 2 2 1 2 2 3 3 2 2 2 2 2 2 2 1 2 2 3 4 4 5 7 7 7 7
7 7 7 7 6 6 5 6 5 6 7 6 6 5 5 6 6 6 6 5 4 3 3 3 3 3 4 3 2 2 2 2 2 2 2 3 3 3 4 6 8 9 8
6 6 7 7 6 6 7 7 8 6 7 7 7 6 6 5 6 5 7 7 6 7 6 5 4 4 4 3 3 3 3 3 3 2 2 2 2 2 3 6 9 9 9
6 6 7 7 7 7 8 8 8 6 7 7 7 7 6 5 5 4 5 5 5 6 6 5 4 4 3 3 4 4 4 2 1 1 2 2 1 2 2 4 7 9 9
7 6 7 7 7 8 8 8 6 5 7 7 7 7 6 5 6 6 4 5 5 5 6 8 8 6 5 4 4 3 2 2 2 2 1 2 2 1 2 2 6 9 8
7 7 7 7 8 8 8 8 6 4 6 6 5 5 6 6 6 6 5 5 6 5 5 6 6 6 5 4 4 4 4 4 3 2 2 2 2 2 1 1 3 5 5
Wind_Direction
352 1 337 15 344 353 355 341 318 338 330 311 301 308 324 311 253 155 140 152 162 168 184 190 186 180 175 168 158 153 149 146 140 136 131 125 121 122 120 118 116 115 113
8 1 354 10 355 342 344 330 317 328 309 306 302 305 302 304 274 155 159 167 176 177 187 193 188 177 173 171 165 161 155 154 149 147 144 139 136 132 132 129 126 125 123
19 29 2 355 350 343 343 337 335 330 317 314 307 299 272 258 271 265 209 174 180 182 190 193 187 178 175 172 172 169 163 160 157 155 153 150 146 141 139 138 133 131 129
13 37 6 352 344 349 345 329 334 332 333 332 324 309 315 259 227 242 212 193 185 181 184 191 186 186 178 176 174 173 169 166 166 166 164 161 157 152 146 146 144 139 136
11 17 359 350 351 358 349 340 358 347 330 325 306 279 288 271 259 296 274 199 183 170 169 183 186 183 179 178 178 177 175 172 173 174 173 170 165 159 157 156 156 152 147
8 4 342 1 358 353 347 338 339 335 321 311 317 324 301 266 200 313 315 290 162 156 160 170 176 184 185 182 180 179 181 179 177 179 179 176 171 167 166 166 164 161 158
5 348 347 334 345 350 347 337 343 336 327 327 338 331 314 313 273 183 278 341 27 87 141 159 173 169 180 184 182 182 185 185 184 183 184 182 176 176 174 173 173 172 170
15 353 344 329 334 352 342 327 347 342 326 342 345 348 338 345 342 2 124 246 79 70 81 128 151 164 169 163 174 181 188 190 190 189 188 184 179 180 180 181 181 181 179
56 343 328 327 340 353 327 335 355 343 334 333 336 41 19 336 322 327 357 84 100 88 90 133 120 126 140 144 152 175 186 190 194 194 193 190 187 186 186 187 188 187 187
118 356 317 316 334 341 343 335 355 342 346 324 327 337 281 171 158 321 327 1 122 126 111 54 74 77 112 125 135 153 170 178 188 194 196 194 192 191 193 193 194 193 191
209 108 294 308 327 335 334 331 342 346 341 326 321 329 335 339 272 217 282 310 20 131 133 78 76 86 109 127 126 140 158 171 181 190 192 192 194 199 199 200 200 197 196
203 177 296 293 319 325 326 320 312 318 310 317 325 328 325 323 319 329 279 270 212 228 163 123 133 136 108 126 133 149 161 170 177 183 189 191 194 199 201 201 202 202 201
284 255 296 274 297 302 297 306 303 304 285 282 287 299 311 311 318 307 290 288 273 240 191 188 196 162 128 133 141 157 167 172 175 176 181 189 191 197 200 202 204 205 204
297 273 266 252 232 258 293 298 303 308 308 294 280 264 279 295 308 309 238 282 322 305 238 217 177 155 124 138 161 167 170 176 178 178 183 185 188 195 201 204 203 207 207
303 311 287 271 243 222 233 260 271 287 301 309 301 301 280 264 269 293 311 182 168 246 259 229 176 170 128 136 155 167 163 177 181 180 181 182 181 187 195 195 195 198 201
316 302 290 277 258 238 214 216 258 275 288 275 245 268 288 292 295 265 275 284 217 196 241 246 211 165 154 152 157 173 163 173 182 182 183 181 179 180 183 186 189 192 198
287 286 282 284 280 270 244 217 234 249 269 276 271 244 241 242 278 278 266 254 247 198 226 269 243 159 151 139 146 180 164 167 179 188 187 183 179 176 175 178 183 190 199
289 286 288 292 294 286 271 242 242 248 249 254 263 269 265 243 233 236 247 254 233 217 196 220 246 178 162 170 170 200 181 169 162 178 179 178 177 175 176 178 180 183 189
312 303 298 299 301 298 291 276 255 247 248 248 244 245 256 255 250 232 222 236 229 218 188 193 219 197 213 185 157 199 170 147 165 165 169 172 174 174 176 178 177 177 177
320 312 312 309 303 303 302 296 297 279 263 259 246 233 237 238 249 257 240 237 225 211 196 197 209 210 201 195 158 174 180 204 186 159 155 166 174 178 180 179 178 178 177
316 310 316 317 313 307 303 314 313 302 290 275 258 235 216 209 215 228 235 243 241 213 201 198 210 210 202 175 183 189 180 189 186 162 154 173 165 167 176 183 183 183 182
307 313 314 309 306 307 312 307 301 303 296 285 273 252 227 216 219 219 214 206 199 210 210 209 209 205 203 191 185 180 180 170 205 204 172 206 174 171 166 156 174 178 178
294 300 302 298 292 285 286 288 281 283 285 284 280 271 261 232 214 217 219 219 222 223 213 206 205 208 199 191 179 184 192 186 201 200 148 211 175 159 150 152 165 170 174
294 288 287 289 287 283 277 275 277 277 278 276 276 274 262 242 233 221 220 219 217 223 220 209 201 203 191 184 181 190 194 183 176 202 150 183 194 158 141 144 163 166 171
289 287 284 283 284 282 272 269 267 278 277 272 270 275 272 255 241 233 230 226 217 215 207 186 182 179 167 165 156 148 167 166 199 222 176 162 177 144 159 175 177 172 171
279 284 284 281 283 283 271 269 268 273 283 283 275 265 263 257 252 234 234 230 225 219 200 195 191 191 189 183 173 169 174 177 184 202 201 158 165 134 157 184 166 176 179
Height
1522 1521 1520 1519 1519 1518 1517 1516 1516 1515 1514 1514 1514 1514 1514 1515 1515 1516 1516 1517 1518 1519 1520 1521 1522 1524 1525 1526 1528 1529 1531 1532 1534 1535 1536 1538 1539 1540 1541 1542 1543 1544 1545
1522 1521 1520 1519 1518 1518 1517 1516 1515 1514 1514 1514 1513 1513 1513 1514 1514 1514 1515 1516 1517 1518 1519 1520 1521 1523 1524 1526 1527 1529 1530 1532 1534 1535 1537 1538 1540 1541 1542 1543 1545 1546 1547
1522 1520 1520 1519 1518 1517 1516 1515 1514 1514 1513 1513 1513 1513 1513 1513 1513 1514 1514 1515 1515 1517 1518 1519 1521 1522 1523 1525 1526 1528 1530 1532 1533 1535 1537 1539 1540 1542 1543 1545 1546 1547 1549
1522 1520 1519 1518 1518 1517 1516 1515 1514 1513 1513 1512 1512 1512 1512 1512 1512 1513 1513 1514 1515 1516 1517 1519 1520 1521 1523 1524 1526 1527 1529 1531 1533 1535 1536 1538 1540 1542 1544 1545 1547 1548 1550
1521 1520 1519 1518 1517 1516 1515 1514 1513 1512 1512 1511 1511 1511 1511 1511 1511 1512 1513 1513 1514 1515 1516 1517 1519 1520 1522 1523 1525 1526 1528 1530 1532 1534 1536 1538 1540 1542 1544 1545 1547 1549 1550
1521 1520 1519 1518 1517 1516 1514 1514 1513 1512 1511 1511 1510 1510 1510 1510 1511 1511 1512 1513 1514 1515 1515 1516 1518 1519 1521 1522 1524 1525 1527 1529 1531 1533 1535 1537 1539 1541 1543 1545 1547 1549 1550
1521 1520 1519 1518 1517 1516 1514 1513 1512 1511 1511 1511 1510 1510 1510 1510 1510 1511 1511 1512 1513 1514 1515 1515 1517 1518 1519 1521 1522 1524 1526 1528 1530 1532 1534 1536 1539 1540 1542 1544 1546 1548 1550
1520 1520 1519 1518 1517 1516 1514 1513 1512 1511 1511 1511 1510 1510 1510 1511 1510 1510 1511 1511 1512 1513 1514 1515 1516 1517 1518 1519 1521 1523 1525 1526 1529 1531 1533 1535 1537 1539 1541 1543 1545 1547 1549
1520 1519 1518 1518 1517 1516 1514 1514 1513 1511 1511 1511 1511 1511 1511 1510 1510 1510 1510 1511 1511 1512 1513 1513 1515 1516 1517 1518 1519 1521 1523 1525 1527 1529 1531 1533 1536 1538 1540 1542 1544 1546 1548
1520 1519 1518 1517 1516 1515 1514 1514 1513 1512 1511 1510 1510 1511 1511 1511 1511 1510 1511 1511 1511 1512 1512 1513 1514 1515 1516 1517 1518 1520 1521 1523 1525 1527 1529 1531 1534 1536 1538 1540 1542 1544 1546
1520 1519 1518 1517 1516 1515 1514 1513 1512 1512 1511 1510 1510 1510 1510 1510 1510 1510 1510 1511 1511 1511 1511 1512 1513 1513 1514 1515 1516 1518 1520 1521 1523 1525 1527 1529 1531 1534 1536 1538 1540 1543 1545
1520 1519 1518 1516 1515 1515 1514 1513 1512 1511 1511 1510 1510 1510 1509 1509 1509 1509 1509 1509 1510 1510 1511 1511 1512 1512 1513 1514 1515 1516 1518 1519 1521 1523 1525 1527 1529 1531 1534 1536 1538 1540 1542
1519 1518 1517 1516 1515 1514 1513 1512 1512 1511 1511 1510 1509 1509 1508 1509 1509 1509 1509 1509 1509 1509 1510 1510 1510 1511 1512 1512 1513 1515 1516 1517 1519 1521 1522 1524 1526 1529 1531 1533 1535 1537 1539
1519 1518 1516 1515 1514 1513 1513 1512 1511 1510 1510 1509 1508 1508 1508 1508 1508 1508 1508 1508 1508 1508 1508 1509 1509 1510 1510 1511 1511 1513 1514 1515 1517 1518 1520 1522 1524 1526 1528 1530 1532 1534 1536
1518 1517 1515 1514 1514 1513 1512 1511 1510 1509 1509 1508 1507 1507 1506 1506 1506 1506 1507 1507 1508 1507 1507 1507 1508 1508 1509 1509 1510 1511 1512 1513 1514 1516 1517 1519 1521 1522 1525 1526 1528 1531 1533
1516 1515 1514 1513 1512 1512 1511 1510 1509 1508 1508 1507 1506 1505 1505 1505 1505 1505 1505 1505 1506 1506 1506 1506 1506 1506 1507 1508 1508 1508 1509 1510 1511 1513 1515 1516 1518 1519 1521 1523 1525 1527 1529
1514 1513 1513 1512 1511 1510 1510 1508 1508 1507 1506 1506 1505 1504 1503 1503 1503 1503 1503 1503 1504 1504 1504 1504 1505 1505 1505 1505 1506 1506 1507 1508 1509 1510 1512 1513 1515 1516 1518 1519 1521 1523 1526
1513 1512 1511 1510 1509 1508 1508 1507 1506 1505 1504 1504 1503 1503 1502 1501 1501 1501 1501 1501 1501 1501 1502 1502 1502 1502 1503 1503 1503 1504 1505 1505 1506 1507 1509 1510 1512 1513 1514 1516 1518 1520 1522
1511 1510 1509 1508 1507 1506 1505 1504 1503 1502 1502 1501 1501 1500 1499 1499 1499 1499 1498 1498 1498 1499 1499 1500 1499 1500 1500 1501 1501 1502 1503 1503 1504 1505 1506 1508 1509 1510 1511 1513 1514 1516 1518
1508 1507 1507 1505 1504 1503 1502 1501 1500 1499 1499 1498 1498 1497 1496 1496 1496 1496 1495 1495 1496 1496 1496 1497 1497 1497 1498 1498 1499 1499 1500 1501 1502 1503 1504 1505 1506 1507 1508 1509 1511 1512 1514
1506 1505 1504 1502 1501 1500 1499 1498 1497 1496 1495 1494 1494 1493 1493 1493 1492 1492 1492 1492 1492 1492 1493 1493 1494 1494 1495 1495 1496 1497 1498 1499 1500 1500 1501 1502 1503 1504 1505 1506 1508 1509 1510
1503 1501 1500 1499 1498 1497 1496 1495 1493 1492 1491 1490 1490 1489 1489 1488 1488 1488 1488 1488 1489 1489 1489 1489 1490 1491 1491 1492 1493 1494 1495 1496 1497 1498 1499 1500 1501 1502 1503 1504 1505 1506 1507
1500 1498 1496 1495 1494 1493 1492 1490 1489 1488 1487 1486 1485 1485 1485 1484 1484 1484 1484 1484 1484 1484 1485 1486 1486 1486 1488 1489 1490 1490 1492 1493 1493 1495 1496 1497 1498 1499 1500 1501 1502 1502 1503
1497 1495 1493 1491 1490 1489 1487 1486 1485 1483 1482 1481 1480 1480 1480 1479 1480 1480 1479 1479 1479 1479 1480 1480 1481 1483 1484 1485 1486 1487 1488 1490 1491 1492 1493 1494 1495 1496 1497 1498 1498 1499 1500
1493 1491 1489 1488 1486 1484 1483 1482 1480 1478 1477 1476 1475 1475 1475 1474 1475 1475 1475 1474 1474 1474 1475 1476 1477 1478 1480 1481 1482 1483 1484 1486 1486 1488 1490 1491 1492 1493 1494 1494 1495 1496 1497
1489 1487 1485 1484 1482 1480 1479 1477 1476 1474 1472 1471 1470 1469 1469 1469 1469 1470 1470 1469 1469 1469 1470 1471 1472 1473 1475 1476 1478 1479 1480 1482 1483 1484 1485 1487 1488 1489 1490 1491 1492 1493 1493